This demonstration page uses our WeatherBlox Daily Observations layout. Learn more.

Left ArrowRight Arrow

Hourly Observations for February 14, 2019

Temp ( °F °C ) Dew Point ( °F °C ) Humidity (%) Winds ( mph kmh ) Pressure ( in mb ) Visibility ( mi km ) Precip ( " mm )
12:52 am 00:52 Cloudy 32 0 27 -2.8 82 82 SSE 9 15 29.55 1001 10 16 0.00 0.00
1:52 am 01:52 Cloudy 34 1.1 28 -2.2 79 79 Calm 29.53 1000 10 16 0.00 0.00
2:52 am 02:52 Cloudy 30 -1.1 25 -3.9 82 82 Calm 29.49 999 10 16 0.00 0.00
3:52 am 03:52 Cloudy 24 -4.4 21 -6.1 88 88 NW 6 9 29.49 999 8 13 0.00 0.00
4:52 am 04:52 Mostly Cloudy 25 -3.9 24 -4.4 96 96 Calm 29.48 998 7 11 0.00 0.00
5:13 am 05:13 Partly Cloudy with Patchy Fog 25 -3.9 22 -5.6 88 88 Calm 29.53 1000 7 11 0.00 0.00
5:46 am 05:46 Partly Cloudy with Mist and Fog 19 -7 18 -8 93 93 Calm 29.53 1000 1 2 0.00 0.00
5:52 am 05:52 Partly Cloudy with Mist and Fog 22 -5.6 19 -7.2 89 89 Calm 29.48 998 2 3 0.00 0.00
6:03 am 06:03 Partly Cloudy with Patchy Fog 24 -4.4 20 -6.7 84 84 Calm 29.52 1000 7 11 0.00 0.00
6:52 am 06:52 Mostly Cloudy with Patchy Fog 22 -5.6 18 -7.8 85 85 SE 3 6 29.49 999 7 11 0.00 0.00
7:52 am 07:52 Mostly Cloudy with Patchy Fog 24 -4.4 20 -6.7 84 84 Calm 29.52 1000 7 11 0.00 0.00
8:52 am 08:52 Mostly Cloudy with Mist and Fog 28 -2.2 24 -4.4 85 85 N 15 24 29.55 1001 6 10 0.00 0.00
9:27 am 09:27 Cloudy with Haze 29 -1.7 24 -4.4 82 82 NNW 31 50 29.61 1003 4 6 0.00 0.00
9:52 am 09:52 Cloudy with Mist and Fog 27 -2.8 23 -5 85 85 NNW 26 43 29.61 1003 3 5 0.00 0.00
10:52 am 10:52 Cloudy with Haze 24 -4.4 18 -7.8 77 77 NNW 26 43 29.69 1005 4 6 0.00 0.00
11:52 am 11:52 Cloudy with Haze 20 -6.7 14 -10 78 78 NNW 23 37 29.76 1008 4 6 0.00 0.00
12:02 pm 12:02 Cloudy with Haze 20 -6.7 13 -10.6 74 74 NNW 24 39 29.82 1010 5 8 0.00 0.00
12:52 pm 12:52 Windy with Snow Likely 19 -7.2 12 -11.1 74 74 NNW 22 35 29.80 1009 5 8 0.00 0.03
1:52 pm 13:52 Windy with Snow Likely 20 -6.7 12 -11.1 71 71 NNW 35 56 29.83 1010 5 8 0.00 0.03
2:52 pm 14:52 Windy with Snow Likely 19 -7.2 12 -11.1 74 74 NNW 25 41 29.88 1012 4 6 0.00 0.03
3:30 pm 15:30 Partly Cloudy 20 -6.7 10 -12.2 65 65 NNW 29 46 29.94 1014 7 11 0.00 0.03
3:52 pm 15:52 Partly Cloudy 20 -6.7 11 -11.7 68 68 NNW 24 39 29.92 1013 7 11 0.00 0.03
4:52 pm 16:52 Partly Cloudy 18 -7.8 8 -13.3 65 65 NNW 23 37 29.96 1015 7 11 0.00 0.00
5:52 pm 17:52 Partly Cloudy 15 -9.4 5 -15 64 64 NNW 20 31 29.98 1015 10 16 0.00 0.00
6:52 pm 18:52 Partly Cloudy 14 -10 4 -15.6 64 64 NNW 17 28 30.05 1018 10 16 0.00 0.00
7:52 pm 19:52 Mostly Clear 12 -11.1 2 -16.7 64 64 NNW 17 28 30.10 1019 10 16 0.00 0.00
8:52 pm 20:52 Partly Cloudy 10 -12.2 1 -17.2 67 67 NNW 21 33 30.12 1020 10 16 0.00 0.00
9:52 pm 21:52 Partly Cloudy 8 -13.3 -2 -18.9 63 63 NNW 16 26 30.15 1021 10 16 0.00 0.00
10:52 pm 22:52 Partly Cloudy 6 -14.4 -2 -18.9 69 69 NNW 15 24 30.16 1021 10 16 0.00 0.00
11:52 pm 23:52 Partly Cloudy 5 -15 -3 -19.4 69 69 NNW 13 20 30.16 1021 10 16 0.00 0.00

Powered by AerisWeather